Location: Natural Bridges National Monument
(37.6093°N, 109.9767°W)
Time: 00:11:50
(UTC-07:00)

Cosmos 1727 Rocket - Visible Passes

Search period start: 06 February 2016 00:00
Search period end: 16 February 2016 00:00
Orbit: 961 x 996 km, 82.9° (Epoch: 05 February)

Date Brightness Start Highest point End Pass type
(mag) Time Alt. Az. Time Alt. Az. Time Alt. Az.
06 Feb 6.6 05:27:55 10° SE 05:32:24 21° E 05:36:52 10° NE visible
06 Feb 4.4 18:09:38 10° N 18:15:54 72° W 18:22:04 10° S visible
07 Feb 5.5 05:52:37 10° SSE 05:58:24 39° E 06:04:13 10° NNE visible
07 Feb 5.7 18:36:23 10° NNW 18:42:04 37° W 18:47:42 10° SSW visible
08 Feb 4.3 06:18:17 10° S 06:24:35 74° E 06:30:56 10° N visible
08 Feb 6.8 19:03:47 10° NW 19:08:04 20° W 19:12:20 10° SW visible
09 Feb 6.7 05:02:02 10° ESE 05:06:09 18° E 05:10:16 10° NE visible
09 Feb 4.1 06:44:42 10° SSW 06:50:57 61° W 06:57:15 10° N visible
10 Feb 5.7 05:26:31 10° SSE 05:32:08 35° E 05:37:47 10° NNE visible
11 Feb 4.5 05:52:02 10° S 05:58:17 66° E 06:04:35 10° NNE visible
11 Feb 6.7 18:37:13 10° NW 18:41:49 22° W 18:46:23 10° SW visible
12 Feb 6.7 04:36:13 10° ESE 04:39:55 16° E 04:43:37 10° NE visible
12 Feb 4.0 06:18:20 10° SSW 06:24:37 68° W 06:30:58 10° N visible
12 Feb 7.3 19:06:35 10° WNW 19:07:40 10° WNW 19:08:44 10° W visible
13 Feb 5.8 05:00:25 10° SSE 05:05:52 31° E 05:11:20 10° NNE visible
13 Feb 4.6 06:45:23 10° SW 06:51:09 36° WNW 06:56:57 10° N visible
14 Feb 4.6 05:25:48 10° S 05:32:00 59° E 05:38:14 10° NNE visible
15 Feb 6.8 04:10:29 10° ESE 04:13:41 14° E 04:16:53 10° NE visible
15 Feb 4.0 05:51:58 10° SSW 05:58:18 75° W 06:04:40 10° N visible
15 Feb 7.1 18:39:12 10° WNW 18:41:25 12° W 18:43:39 10° W visible
